When you browse on this site, cookies collect data to enhance your experience and personalize the content and advertising you see.
Visit our Privacy Policy to learn more. By continuing to use the site, you agree to this use of cookies and data.

Stündliche Wetter München

Heute, 6 Juli, Montag

Zeit Temperatur Niederschläge Wind Luftdruck Luftfeuchtigkeit
00:00 +19°C° 0 mm 3 m/S 716 mmHg 90%
01:00 +18°C° 0 mm 3 m/S 716 mmHg 92%
02:00 +18°C° 0 mm 3 m/S 716 mmHg 93%
03:00 +18°C° 0 mm 3 m/S 716 mmHg 94%
04:00 +18°C° 0 mm 3 m/S 715 mmHg 94%
05:00 +19°C° 0.1 mm 3 m/S 715 mmHg 92%
06:00 +20°C° 0.1 mm 4 m/S 715 mmHg 91%
07:00 +21°C° 0.1 mm 4 m/S 715 mmHg 89%
08:00 +19°C° 0.4 mm 4 m/S 715 mmHg 88%
09:00 +17°C° 0.4 mm 5 m/S 715 mmHg 88%
10:00 +16°C° 0.4 mm 5 m/S 715 mmHg 87%
11:00 +15°C° 0.2 mm 4 m/S 715 mmHg 87%
12:00 +14°C° 0.2 mm 3 m/S 715 mmHg 87%
13:00 +13°C° 0.2 mm 3 m/S 715 mmHg 87%
14:00 +14°C° 0 mm 3 m/S 716 mmHg 84%
15:00 +16°C° 0 mm 3 m/S 716 mmHg 81%
16:00 +17°C° 0 mm 4 m/S 716 mmHg 78%
17:00 +17°C° 0 mm 4 m/S 717 mmHg 76%
18:00 +16°C° 0 mm 3 m/S 717 mmHg 73%
19:00 +16°C° 0 mm 3 m/S 718 mmHg 71%
20:00 +14°C° 0 mm 3 m/S 718 mmHg 73%
21:00 +13°C° 0 mm 3 m/S 718 mmHg 75%
22:00 +12°C° 0 mm 2 m/S 719 mmHg 76%
23:00 +12°C° 0 mm 2 m/S 719 mmHg 79%

Morgen, 7 Juli, Dienstag

Zeit Temperatur Niederschläge Wind Luftdruck Luftfeuchtigkeit
00:00 +12°C° 0 mm 2 m/S 719 mmHg 81%
01:00 +10°C° 0 mm 2 m/S 719 mmHg 83%
02:00 +10°C° 0 mm 2 m/S 719 mmHg 86%
03:00 +9°C° 0 mm 2 m/S 719 mmHg 89%
04:00 +9°C° 0 mm 2 m/S 719 mmHg 91%
05:00 +10°C° 0 mm 2 m/S 719 mmHg 87%
06:00 +12°C° 0 mm 1 m/S 719 mmHg 82%
07:00 +13°C° 0 mm 1 m/S 719 mmHg 78%
08:00 +15°C° 0 mm 1 m/S 719 mmHg 71%
09:00 +18°C° 0 mm 1 m/S 719 mmHg 64%
10:00 +19°C° 0 mm 1 m/S 719 mmHg 57%
11:00 +20°C° 0 mm 1 m/S 719 mmHg 54%
12:00 +21°C° 0 mm 1 m/S 718 mmHg 51%
13:00 +20°C° 0 mm 2 m/S 718 mmHg 49%
14:00 +20°C° 0 mm 2 m/S 718 mmHg 50%
15:00 +20°C° 0 mm 2 m/S 718 mmHg 51%
16:00 +20°C° 0 mm 2 m/S 717 mmHg 52%
17:00 +19°C° 0 mm 2 m/S 717 mmHg 59%
18:00 +19°C° 0 mm 2 m/S 717 mmHg 65%
19:00 +19°C° 0 mm 1 m/S 717 mmHg 71%
20:00 +16°C° 0 mm 1 m/S 717 mmHg 74%
21:00 +14°C° 0 mm 1 m/S 717 mmHg 78%
22:00 +12°C° 0 mm 0 m/S 718 mmHg 81%
23:00 +12°C° 0 mm 1 m/S 717 mmHg 83%

übermorgen, 8 Juli, Mittwoch

Zeit Temperatur Niederschläge Wind Luftdruck Luftfeuchtigkeit
00:00 +12°C° 0 mm 1 m/S 717 mmHg 84%
01:00 +12°C° 0 mm 1 m/S 717 mmHg 86%
02:00 +12°C° 0 mm 1 m/S 717 mmHg 87%
03:00 +11°C° 0 mm 1 m/S 717 mmHg 89%
04:00 +10°C° 0 mm 2 m/S 717 mmHg 90%
05:00 +13°C° 0 mm 2 m/S 717 mmHg 86%
06:00 +14°C° 0 mm 2 m/S 717 mmHg 81%
07:00 +16°C° 0 mm 2 m/S 717 mmHg 77%
08:00 +17°C° 0 mm 2 m/S 718 mmHg 70%
09:00 +19°C° 0 mm 2 m/S 718 mmHg 64%
10:00 +21°C° 0 mm 3 m/S 718 mmHg 58%
11:00 +21°C° 0 mm 3 m/S 718 mmHg 57%
12:00 +22°C° 0 mm 3 m/S 718 mmHg 55%
13:00 +23°C° 0 mm 4 m/S 717 mmHg 53%
14:00 +23°C° 0 mm 4 m/S 718 mmHg 54%
15:00 +23°C° 0 mm 4 m/S 718 mmHg 56%
16:00 +23°C° 0 mm 4 m/S 718 mmHg 57%
17:00 +22°C° 0 mm 3 m/S 718 mmHg 63%
18:00 +21°C° 0 mm 2 m/S 718 mmHg 70%
19:00 +21°C° 0 mm 1 m/S 718 mmHg 76%
20:00 +20°C° 0 mm 1 m/S 719 mmHg 81%
21:00 +18°C° 0 mm 1 m/S 719 mmHg 85%
22:00 +14°C° 0 mm 0 m/S 719 mmHg 90%
23:00 +15°C° 0 mm 1 m/S 719 mmHg 90%

9 Juli, Donnerstag

Zeit Temperatur Niederschläge Wind Luftdruck Luftfeuchtigkeit
00:00 +15°C° 0 mm 1 m/S 719 mmHg 91%
01:00 +15°C° 0 mm 1 m/S 719 mmHg 91%
02:00 +14°C° 0 mm 1 m/S 719 mmHg 92%
03:00 +14°C° 0 mm 1 m/S 719 mmHg 92%
04:00 +14°C° 0 mm 1 m/S 719 mmHg 93%
05:00 +15°C° 0 mm 1 m/S 719 mmHg 89%
06:00 +16°C° 0 mm 1 m/S 719 mmHg 86%
07:00 +19°C° 0 mm 1 m/S 719 mmHg 83%
08:00 +20°C° 0 mm 1 m/S 719 mmHg 76%
09:00 +22°C° 0 mm 1 m/S 720 mmHg 70%
10:00 +24°C° 0 mm 1 m/S 720 mmHg 64%
11:00 +24°C° 0 mm 1 m/S 719 mmHg 62%
12:00 +25°C° 0 mm 2 m/S 719 mmHg 60%
13:00 +25°C° 0 mm 2 m/S 719 mmHg 58%
14:00 +26°C° 0 mm 2 m/S 719 mmHg 58%
15:00 +26°C° 0 mm 2 m/S 718 mmHg 58%
16:00 +26°C° 0 mm 2 m/S 718 mmHg 59%
17:00 +25°C° 0 mm 2 m/S 718 mmHg 65%
18:00 +24°C° 0 mm 1 m/S 718 mmHg 71%
19:00 +23°C° 0 mm 1 m/S 718 mmHg 78%
20:00 +22°C° 0 mm 1 m/S 718 mmHg 82%
21:00 +20°C° 0 mm 1 m/S 718 mmHg 85%
22:00 +19°C° 0 mm 1 m/S 718 mmHg 89%
23:00 +18°C° 0 mm 1 m/S 718 mmHg 90%

10 Juli, Freitag

Zeit Temperatur Niederschläge Wind Luftdruck Luftfeuchtigkeit
00:00 +18°C° 0 mm 1 m/S 717 mmHg 91%
01:00 +18°C° 0 mm 1 m/S 717 mmHg 92%
02:00 +18°C° 0 mm 1 m/S 717 mmHg 92%
03:00 +16°C° 0 mm 1 m/S 716 mmHg 92%
04:00 +16°C° 0 mm 1 m/S 716 mmHg 92%
05:00 +18°C° 0 mm 1 m/S 716 mmHg 89%
06:00 +20°C° 0 mm 1 m/S 716 mmHg 86%
07:00 +21°C° 0 mm 1 m/S 716 mmHg 82%
08:00 +23°C° 0 mm 1 m/S 716 mmHg 72%
09:00 +25°C° 0 mm 1 m/S 716 mmHg 63%
10:00 +28°C° 0 mm 2 m/S 716 mmHg 53%
11:00 +29°C° 0 mm 2 m/S 716 mmHg 50%
12:00 +29°C° 0 mm 2 m/S 715 mmHg 46%
13:00 +30°C° 0 mm 3 m/S 715 mmHg 43%
14:00 +30°C° 0 mm 3 m/S 715 mmHg 45%
15:00 +30°C° 0 mm 3 m/S 715 mmHg 46%
16:00 +30°C° 0 mm 3 m/S 714 mmHg 47%
17:00 +27°C° 0.6 mm 3 m/S 715 mmHg 59%
18:00 +25°C° 0.6 mm 4 m/S 715 mmHg 71%
19:00 +21°C° 0.6 mm 4 m/S 715 mmHg 82%
20:00 +20°C° 1.7 mm 3 m/S 715 mmHg 86%
21:00 +19°C° 1.7 mm 2 m/S 716 mmHg 90%
22:00 +19°C° 1.7 mm 1 m/S 717 mmHg 94%
23:00 +18°C° 3.3 mm 2 m/S 717 mmHg 95%

11 Juli, Samstag

Zeit Temperatur Niederschläge Wind Luftdruck Luftfeuchtigkeit
00:00 +17°C° 3.3 mm 2 m/S 717 mmHg 96%
01:00 +17°C° 3.3 mm 2 m/S 717 mmHg 97%
02:00 +16°C° 2.5 mm 2 m/S 717 mmHg 96%
03:00 +14°C° 2.5 mm 3 m/S 717 mmHg 95%
04:00 +13°C° 2.5 mm 3 m/S 716 mmHg 94%
05:00 +14°C° 0.8 mm 2 m/S 717 mmHg 94%
06:00 +14°C° 0.8 mm 2 m/S 717 mmHg 94%
07:00 +13°C° 0.8 mm 2 m/S 717 mmHg 94%
08:00 +14°C° 0.6 mm 2 m/S 718 mmHg 92%
09:00 +14°C° 0.6 mm 2 m/S 718 mmHg 91%
10:00 +14°C° 0.6 mm 1 m/S 719 mmHg 89%
11:00 +15°C° 0.1 mm 1 m/S 719 mmHg 85%
12:00 +16°C° 0.1 mm 1 m/S 719 mmHg 81%
13:00 +16°C° 0.1 mm 1 m/S 720 mmHg 77%
14:00 +17°C° 0.1 mm 2 m/S 720 mmHg 74%
15:00 +17°C° 0.1 mm 2 m/S 720 mmHg 72%
16:00 +18°C° 0.1 mm 2 m/S 720 mmHg 70%
17:00 +17°C° 0.1 mm 2 m/S 720 mmHg 72%
18:00 +17°C° 0.1 mm 2 m/S 720 mmHg 75%
19:00 +16°C° 0.1 mm 1 m/S 720 mmHg 78%
20:00 +15°C° 0 mm 1 m/S 721 mmHg 79%
21:00 +13°C° 0 mm 1 m/S 721 mmHg 81%
22:00 +12°C° 0 mm 1 m/S 721 mmHg 82%
23:00 +11°C° 0 mm 1 m/S 721 mmHg 83%
Mehr zeigen